Hourly Data Report for October 03, 2017

All times are specified in Local Standard Time (LST). Add 1 hour to adjust for Daylight Saving Time where and when it is observed.

ESTEVAN POINT CS
BRITISH COLUMBIA

49°22'59.914" N
126°32'35.193" W
5.80 m
1032731
71894
WEB

Download Data

Hourly Data (October 2017)
Hourly Data Report for October 3, 2017
Temp Definition
°C
Dew Point Temp Definition
°C
Rel Hum Definition
%
Wind Dir Definition
10's deg

Wind Spd Definition
km/h
Visibility Definition
km
Stn Press Definition
kPa
Hmdx Definition


Wind Chill Definition


Weather Definition


TIME
00:00 8.7 8.7 100 33 4   102.44     LegendNANA
01:00 8.8 8.4 97 9 3   102.48     LegendNANA
02:00 8.3 8.0 98 10 6   102.49     LegendNANA
03:00 7.6 7.6 100 19 3   102.52     LegendNANA
04:00 7.9 LegendMM LegendMM 13 3   102.50     LegendNANA
05:00 7.2 7.2 100 34 5   102.51     LegendNANA
06:00 6.9 LegendMM LegendMM 31 5   102.52     LegendNANA
07:00 6.4 LegendMM LegendMM 16 5   102.54     LegendNANA
08:00 7.8 LegendMM LegendMM 17 7   102.59     LegendNANA
09:00 10.2 LegendMM LegendMM 17 3   102.62     LegendNANA
10:00 12.6 11.6 94 19 3   102.63     LegendNANA
11:00 13.3 10.6 84 25 1   102.60     LegendNANA
12:00 14.6 10.7 78 21 6   102.56     LegendNANA
13:00 15.0 10.2 73 22 5   102.50     LegendNANA
14:00 14.9 11.0 78 23 6   102.52     LegendNANA
15:00 15.3 12.2 81 25 9   102.48     LegendNANA
16:00 14.7 12.3 86 28 7   102.46     LegendNANA
17:00 14.7 13.5 93 31 10   102.43     LegendNANA
18:00 13.1 13.1 100 33 17   102.39     LegendNANA
19:00 10.9 LegendMM LegendMM 35 13   102.02     LegendNANA
20:00 10.4 LegendMM LegendMM 35 10   102.24     LegendNANA
21:00 10.2 LegendMM LegendMM 33 9   102.21     LegendNANA
22:00 9.2 LegendMM LegendMM 33 2   102.17     LegendNANA
23:00 8.9 LegendMM LegendMM 6 6   102.17     LegendNANA

Notes on Data Quality.

Legend

  • E = Estimated
  • M = Missing
  • NA = Not Available
  • ‡ = Partner data that is not subject to review by the National Climate Archives
Date modified: